Lid_Strength_Index
5 5 4 3 3 1 2 1 1 1 1 2 3 3 3 2 1 0 -0 -1 -0 -0 -0 0 2 2 3 2 1 2 2 2 2 3 3 2 1 1 1 0 1 1 1
6 5 3 3 2 2 2 2 2 1 1 1 2 2 2 1 1 0 -0 -0 -0 0 0 1 3 2 3 3 3 2 3 2 2 3 3 5 4 2 2 1 1 1 1
5 4 3 3 2 2 2 2 2 1 1 1 1 1 1 1 1 1 1 1 0 0 1 2 2 3 4 4 2 2 2 4 2 2 3 5 5 4 3 2 2 1 1
4 4 3 3 3 2 2 2 2 1 1 1 1 2 3 3 2 1 1 1 0 1 2 2 3 4 4 4 3 3 3 3 3 3 3 1 3 4 6 4 3 2 2
4 4 4 3 2 2 2 2 1 2 3 2 2 2 2 2 1 1 1 1 0 2 2 3 3 4 4 3 3 2 2 2 2 3 3 3 3 3 4 5 5 3 2
4 4 3 3 3 2 2 2 2 3 4 3 2 2 2 2 2 2 2 1 1 1 1 3 4 4 4 4 4 3 1 1 1 1 2 3 4 4 4 5 4 4 3
4 4 4 3 3 3 3 2 2 3 3 3 3 2 2 1 2 2 2 2 2 1 1 1 3 4 4 4 4 2 2 2 1 1 2 2 3 3 3 4 5 5 4
4 4 4 3 3 3 3 3 3 3 3 3 3 1 1 1 1 1 1 1 2 1 0 1 1 2 3 4 3 2 2 2 1 2 2 2 3 3 3 4 4 5 4
5 4 4 3 3 3 2 3 3 3 3 3 2 2 1 2 2 2 1 1 1 1 1 1 1 1 2 2 3 2 2 2 2 2 2 3 3 3 3 3 4 5 6
5 4 4 3 3 3 2 2 2 3 3 3 2 1 1 1 1 1 1 1 1 1 1 1 1 1 2 2 3 3 2 3 3 3 3 3 3 3 3 4 4 4 5
5 4 4 3 3 3 2 3 3 3 2 3 2 1 1 1 1 1 1 1 1 0 1 1 1 1 2 2 3 3 3 4 4 4 4 4 3 4 4 3 3 4 4
5 4 4 3 3 5 3 3 3 3 2 3 2 2 1 1 1 1 1 1 1 1 1 1 1 1 2 2 3 4 4 4 4 4 4 4 3 3 3 3 4 3 3
5 4 4 4 4 4 6 3 3 3 3 3 2 2 2 2 2 1 1 1 1 2 2 2 2 2 2 2 2 3 4 4 4 4 4 3 3 4 3 3 3 3 5
5 5 4 4 4 4 6 5 3 3 3 3 2 2 2 2 2 1 1 1 1 2 2 2 2 3 2 3 3 3 3 3 4 4 4 4 4 4 4 6 7 8 9
5 5 5 5 5 5 6 7 3 3 3 4 2 2 2 1 1 2 2 2 2 2 2 2 2 2 3 3 3 5 8 11 12 12 13 12 12 13 12 10 10 11 12
6 5 5 5 7 7 7 8 7 3 3 3 2 2 2 2 2 3 2 2 2 2 3 3 4 5 6 10 11 10 11 12 14 15 15 15 14 15 15 16 16 14 13
6 5 6 7 8 8 8 8 8 6 4 4 2 2 2 2 2 2 2 3 5 6 7 8 8 10 10 11 12 12 13 14 15 16 16 16 16 16 16 16 16 16 17
6 7 7 8 8 9 9 9 8 6 4 4 3 2 2 2 2 3 6 7 8 9 10 12 12 12 12 12 13 14 14 15 15 15 15 16 16 16 17 18 19 19 19
7 8 8 8 9 10 10 10 9 6 4 4 4 3 2 2 4 7 9 10 11 13 13 13 13 14 14 13 13 14 15 16 16 16 15 16 16 16 16 18 19 20 20
8 9 8 9 10 11 11 10 10 8 4 4 4 3 3 4 6 10 11 12 13 14 15 15 14 15 15 14 14 14 15 16 17 17 16 16 17 17 18 19 20 22 22
9 9 10 11 12 12 12 12 12 14 12 9 5 5 6 8 10 11 13 13 14 15 16 16 16 15 15 14 14 14 16 17 18 18 18 18 17 18 18 19 20 21 21
10 10 11 12 13 13 14 14 14 14 13 12 11 11 12 12 13 14 14 14 15 16 16 16 16 16 15 15 16 16 17 18 19 20 20 19 19 19 20 20 21 21 22
11 11 12 13 13 14 15 16 16 15 15 15 15 15 15 15 15 15 15 16 16 16 17 17 18 18 17 17 17 17 18 18 20 20 19 19 20 21 21 22 22 22 23
12 11 12 14 14 15 15 17 16 17 17 17 17 16 16 16 16 16 16 17 17 17 18 19 20 19 19 19 19 19 19 19 20 22 23 23 23 24 24 23 23 23 23
13 13 13 14 15 15 16 16 17 17 18 18 18 17 18 18 18 18 18 18 17 18 19 19 19 20 21 20 20 21 22 22 23 23 23 24 24 24 24 24 24 24 24
14 14 14 15 15 16 16 16 16 17 18 19 19 19 18 18 18 18 19 17 18 17 18 18 19 19 19 19 19 19 20 20 21 22 23 23 23 24 25 25 25 24 25